Weather History for Petersburg, AK

Change the Weather History Date:

Thursday, December 22, 2011

  Actual Average Record
Temperature  
Mean Temperature 38 °F -  
Max Temperature 42 °F 34 °F 47 °F (1985)
Min Temperature 35 °F 27 °F 6 °F (2008)
Degree Days  
Heating Degree Days 26    
Moisture  
Dew Point 35 °F    
Average Humidity 83    
Maximum Humidity 93    
Minimum Humidity 76    
Precipitation  
Precipitation 0.00 in - - ()
Sea Level Pressure  
Sea Level Pressure 29.62 in    
Wind  
Wind Speed 9 mph (ESE)    
Max Wind Speed 22 mph    
Max Gust Speed 32 mph    
Visibility 6 miles    
Events      
Averages and records for this station are not official NWS values.
T = Trace of Precipitation, MM = Missing Value Source: NWS Daily Summary

Daily Weather History Graph

Daily Weather History Graph

Search for Another Location

Airport:

Trip Planner

Search our weather history database for the weather conditions in past years. The results will help you decide how hot, cold, wet, or windy it might be!

Date:

Astronomy

Dec. 22, 2011 Rise Set
Actual Time 8:27 AM AKST 3:13 PM AKST
Civil Twilight 7:38 AM AKST 4:02 PM AKST
Nautical Twilight 6:48 AM AKST 4:52 PM AKST
Astronomical Twilight 6:01 AM AKST 5:39 PM AKST
Moon 6:17 AM AKST (12/22) 1:30 PM AKST (12/22)
Length of Visible Light 8h 23m
Length of Day
6h 45m
Waning Crescent, 5% of the Moon is Illuminated
Dec 22
Waning Crescent
Dec 24
New
Dec 31
First Quarter
Jan 8
Full
Jan 16
Last Quarter

Hourly Weather History & Observations

Time (AKST) Temp. Windchill Dew Point Humidity Pressure Visibility Wind Dir Wind Speed Gust Speed Precip Events Conditions
12:16 AM 35.6 °F 30.7 °F 32.0 °F 87% 29.89 in 5.0 mi South 5.8 mph - N/A   Overcast
12:36 AM 35.6 °F 31.7 °F 32.0 °F 87% 29.89 in 5.0 mi SSW 4.6 mph - N/A   Overcast
12:56 AM 35.6 °F 32.8 °F 32.0 °F 87% 29.88 in 7.0 mi West 3.5 mph - N/A   Overcast
1:16 AM 35.6 °F - 32.0 °F 87% 29.87 in 5.0 mi Calm Calm - N/A   Overcast
1:36 AM 35.6 °F - 33.8 °F 93% 29.87 in 4.0 mi Calm Calm - N/A   Overcast
1:56 AM 35.6 °F 32.8 °F 32.0 °F 87% 29.86 in 10.0 mi SSW 3.5 mph - N/A   Overcast
2:16 AM 37.4 °F - 33.8 °F 87% 29.86 in 9.0 mi Calm Calm - N/A   Overcast
2:36 AM 39.2 °F 35.0 °F 33.8 °F 81% 29.85 in 10.0 mi SSE 5.8 mph - N/A   Overcast
2:56 AM 39.2 °F 35.0 °F 33.8 °F 81% 29.84 in 10.0 mi East 5.8 mph - N/A   Overcast
3:16 AM 39.2 °F 33.6 °F 35.6 °F 87% 29.82 in 10.0 mi ESE 8.1 mph 17.3 mph N/A   Overcast
3:36 AM 39.2 °F 33.0 °F 35.6 °F 87% 29.80 in 9.0 mi ESE 9.2 mph 25.3 mph N/A   Overcast
3:56 AM 39.2 °F 32.0 °F 35.6 °F 87% 29.80 in 10.0 mi SE 11.5 mph 27.6 mph N/A   Overcast
4:16 AM 39.2 °F 32.0 °F 35.6 °F 87% 29.79 in 10.0 mi East 11.5 mph 19.6 mph N/A   Overcast
4:36 AM 41.0 °F 34.7 °F 35.6 °F 81% 29.78 in 10.0 mi ESE 10.4 mph 23.0 mph N/A   Overcast
4:56 AM 41.0 °F 37.1 °F 35.6 °F 81% 29.78 in 5.0 mi SE 5.8 mph 20.7 mph N/A   Overcast
5:16 AM 41.0 °F 34.7 °F 35.6 °F 81% 29.77 in 5.0 mi ESE 10.4 mph 17.3 mph N/A   Overcast
5:36 AM 41.0 °F 35.2 °F 35.6 °F 81% 29.76 in 4.0 mi ESE 9.2 mph - N/A   Overcast
5:56 AM 41.0 °F 35.8 °F 35.6 °F 81% 29.74 in 5.0 mi ESE 8.1 mph 20.7 mph N/A   Overcast
6:16 AM 41.0 °F 32.8 °F 35.6 °F 81% 29.73 in 5.0 mi ESE 16.1 mph 26.5 mph N/A   Overcast
6:36 AM 41.0 °F 33.1 °F 35.6 °F 81% 29.72 in 5.0 mi ESE 15.0 mph 25.3 mph N/A   Overcast
6:56 AM 41.0 °F 32.5 °F 35.6 °F 81% 29.70 in 5.0 mi ESE 17.3 mph 29.9 mph N/A   Overcast
7:16 AM 41.0 °F 31.6 °F 35.6 °F 81% 29.68 in 5.0 mi East 20.7 mph 32.2 mph N/A   Overcast
7:36 AM 41.0 °F 32.5 °F 35.6 °F 81% 29.67 in 5.0 mi East 17.3 mph 24.2 mph N/A   Overcast
7:56 AM 41.0 °F 33.5 °F 35.6 °F 81% 29.67 in 3.0 mi SE 13.8 mph 28.8 mph N/A   Overcast
8:16 AM 41.0 °F 34.3 °F 35.6 °F 81% 29.67 in 3.0 mi East 11.5 mph 24.2 mph N/A   Overcast
8:36 AM 41.0 °F 35.2 °F 35.6 °F 81% 29.66 in 3.0 mi East 9.2 mph 20.7 mph N/A   Overcast
8:56 AM 41.0 °F 33.5 °F 35.6 °F 81% 29.64 in 7.0 mi East 13.8 mph 19.6 mph N/A   Overcast
9:16 AM 41.0 °F 33.5 °F 35.6 °F 81% 29.63 in 7.0 mi ESE 13.8 mph 27.6 mph N/A   Overcast
9:36 AM 42.8 °F 37.5 °F 35.6 °F 76% 29.63 in 7.0 mi ESE 9.2 mph 28.8 mph N/A   Overcast
9:56 AM 41.0 °F 34.3 °F 35.6 °F 81% 29.62 in 7.0 mi SE 11.5 mph 26.5 mph N/A   Overcast
10:16 AM 41.0 °F 35.2 °F 35.6 °F 81% 29.61 in 7.0 mi East 9.2 mph 23.0 mph N/A   Overcast
10:36 AM 41.0 °F 35.8 °F 35.6 °F 81% 29.60 in 7.0 mi ENE 8.1 mph - N/A   Overcast
10:56 AM 42.8 °F 39.3 °F 35.6 °F 76% 29.58 in 5.0 mi ESE 5.8 mph 17.3 mph N/A   Overcast
11:16 AM 41.0 °F 33.5 °F 35.6 °F 81% 29.56 in 5.0 mi East 13.8 mph 18.4 mph N/A   Overcast
11:36 AM 41.0 °F 35.8 °F 35.6 °F 81% 29.55 in 5.0 mi SE 8.1 mph 32.2 mph N/A   Overcast
11:56 AM 41.0 °F 33.9 °F 35.6 °F 81% 29.54 in 4.0 mi ESE 12.7 mph 32.2 mph N/A   Overcast
12:16 PM 39.2 °F 31.6 °F 35.6 °F 87% 29.53 in 4.0 mi SE 12.7 mph 24.2 mph N/A   Overcast
12:36 PM 39.2 °F 34.2 °F 35.6 °F 87% 29.53 in 4.0 mi SSE 6.9 mph 26.5 mph N/A   Overcast
12:56 PM 39.2 °F 29.6 °F 35.6 °F 87% 29.50 in 4.0 mi East 19.6 mph 27.6 mph N/A   Overcast
1:16 PM 39.2 °F 32.5 °F 35.6 °F 87% 29.49 in 4.0 mi ESE 10.4 mph 24.2 mph N/A   Overcast
1:36 PM 39.2 °F 30.5 °F 35.6 °F 87% 29.48 in 4.0 mi East 16.1 mph 24.2 mph N/A   Overcast
1:56 PM 39.2 °F 29.0 °F 33.8 °F 81% 29.46 in 5.0 mi East 21.9 mph 26.5 mph N/A   Overcast
2:16 PM 39.2 °F 31.6 °F 35.6 °F 87% 29.45 in 5.0 mi ESE 12.7 mph 26.5 mph N/A   Overcast
2:36 PM 39.2 °F 32.5 °F 35.6 °F 87% 29.44 in 5.0 mi East 10.4 mph 24.2 mph N/A   Overcast
2:56 PM 39.2 °F 33.0 °F 33.8 °F 81% 29.43 in 7.0 mi East 9.2 mph 20.7 mph N/A   Overcast
3:16 PM 39.2 °F 30.8 °F 35.6 °F 87% 29.41 in 7.0 mi ESE 15.0 mph 18.4 mph N/A   Overcast
3:36 PM 39.2 °F 31.6 °F 33.8 °F 81% 29.41 in 7.0 mi East 12.7 mph 20.7 mph N/A   Overcast
3:56 PM 39.2 °F 31.2 °F 33.8 °F 81% 29.39 in 10.0 mi ESE 13.8 mph 25.3 mph N/A   Overcast
4:16 PM 39.2 °F 31.6 °F 33.8 °F 81% 29.38 in 10.0 mi ESE 12.7 mph 21.9 mph N/A   Overcast
4:36 PM 39.2 °F 33.0 °F 33.8 °F 81% 29.37 in 10.0 mi ESE 9.2 mph 19.6 mph N/A   Overcast
4:56 PM 39.2 °F 32.5 °F 33.8 °F 81% 29.36 in 7.0 mi ESE 10.4 mph 19.6 mph N/A   Overcast
5:16 PM 39.2 °F 32.0 °F 33.8 °F 81% 29.35 in 7.0 mi ESE 11.5 mph 21.9 mph N/A   Overcast
5:36 PM 39.2 °F 33.6 °F 33.8 °F 81% 29.34 in 7.0 mi SE 8.1 mph 19.6 mph N/A   Overcast
5:56 PM 39.2 °F 35.0 °F 33.8 °F 81% 29.33 in 7.0 mi ESE 5.8 mph - N/A   Overcast
6:16 PM 39.2 °F 33.0 °F 33.8 °F 81% 29.32 in 7.0 mi East 9.2 mph - N/A   Overcast
6:36 PM 39.2 °F 32.0 °F 33.8 °F 81% 29.31 in 7.0 mi SE 11.5 mph 18.4 mph N/A   Overcast
6:56 PM 39.2 °F 34.2 °F 33.8 °F 81% 29.31 in 7.0 mi ESE 6.9 mph - N/A   Overcast
7:16 PM 37.4 °F 34.9 °F 33.8 °F 87% 29.30 in 7.0 mi East 3.5 mph - N/A   Overcast
7:36 PM 37.4 °F - 33.8 °F 87% 29.30 in 7.0 mi Calm Calm - N/A   Overcast
7:56 PM 37.4 °F 34.9 °F 33.8 °F 87% 29.30 in 5.0 mi SSE 3.5 mph - N/A   Overcast
8:16 PM 37.4 °F - 33.8 °F 87% 29.30 in 5.0 mi Calm Calm - N/A   Overcast
8:36 PM 37.4 °F 34.9 °F 33.8 °F 87% 29.29 in 5.0 mi ESE 3.5 mph - N/A   Overcast
8:56 PM 37.4 °F 34.9 °F 33.8 °F 87% 29.29 in 5.0 mi SE 3.5 mph - N/A   Overcast
9:16 PM 37.4 °F 34.9 °F 35.6 °F 93% 29.29 in 5.0 mi ESE 3.5 mph - N/A   Overcast
9:36 PM 39.2 °F - 33.8 °F 81% 29.29 in 5.0 mi Calm Calm - N/A   Overcast
9:56 PM 39.2 °F 35.9 °F 33.8 °F 81% 29.30 in 7.0 mi ESE 4.6 mph - N/A   Overcast
10:16 PM 39.2 °F 37.0 °F 33.8 °F 81% 29.30 in 10.0 mi SE 3.5 mph - N/A   Overcast
10:36 PM 39.2 °F 35.9 °F 33.8 °F 81% 29.31 in 8.0 mi SE 4.6 mph - N/A   Overcast
10:56 PM 37.4 °F - 33.8 °F 87% 29.32 in 7.0 mi Calm Calm - N/A   Overcast
11:16 PM 37.4 °F - 33.8 °F 87% 29.34 in 7.0 mi Calm Calm - N/A   Overcast
11:36 PM 37.4 °F 34.9 °F 35.6 °F 93% 29.35 in 10.0 mi WNW 3.5 mph - N/A   Overcast
11:56 PM 35.6 °F 32.8 °F 33.8 °F 93% 29.37 in 7.0 mi WSW 3.5 mph - N/A   Overcast